Litchfield, MN

3:26 PM CST on December 09, 2019 (GMT -0600)
Litchfield Municipal

Weather History for KLJF - October, 2019

Change the Weather History Date:

Saturday, October 19, 2019

  Actual Average Record
Temperature  
Mean Temperature 57 °F -  
Max Temperature 66 °F 56 °F 84 °F (2000)
Min Temperature 46 °F 33 °F 14 °F (1972)
Degree Days  
Heating Degree Days 8    
Growing Degree Days 7 (Base 50)    
Moisture  
Dew Point 41 °F    
Average Humidity 64    
Maximum Humidity 93    
Minimum Humidity 32    
Precipitation  
Precipitation 0.00 in - - ()
Sea Level Pressure  
Sea Level Pressure 29.67 in    
Wind  
Wind Speed 5 mph ()    
Max Wind Speed 12 mph    
Max Gust Speed 18 mph    
Visibility 10.0 miles    
Events Rain    
Averages and records for this station are not official NWS values.
T = Trace of Precipitation, MM = Missing Value Source: Averaged Metar Reports

Daily Weather History Graph

Daily Weather History Graph

Search for Another Location

Airport or City:

Astronomy

Oct. 19, 2019 Rise Set
Actual Time 7:38 AM CDT 6:26 PM CDT
Civil Twilight 7:09 AM CDT 6:56 PM CDT
Nautical Twilight 6:34 AM CDT 7:30 PM CDT
Astronomical Twilight 6:00 AM CDT 8:04 PM CDT
Moon 10:24 PM CDT (10/19) 1:23 PM CDT (10/19)
Length of Visible Light 11h 47m
Length of Day
10h 47m
Waning Gibbous, 69% of the Moon is Illuminated
Oct 19
Waning Gibbous
Oct 21
Last Quarter
Oct 27
New
Nov 4
First Quarter
Nov 12
Full

Hourly Weather History & Observations

Time (CDT) Temp. Dew Point Humidity Pressure Visibility Wind Dir Wind Speed Gust Speed Precip Events Conditions
12:18 AM 55.4 °F 48.2 °F 77% 29.56 in 10.0 mi West 4.6 mph - N/A   Clear
12:36 AM 55.4 °F 48.2 °F 77% 29.55 in 10.0 mi West 3.5 mph - N/A   Clear
12:56 AM 55.4 °F 48.2 °F 77% 29.56 in 10.0 mi West 4.6 mph - N/A   Clear
1:15 AM 53.6 °F 48.2 °F 82% 29.56 in 10.0 mi West 5.8 mph - N/A   Clear
1:35 AM 53.6 °F 48.2 °F 82% 29.58 in 10.0 mi WNW 9.2 mph - N/A   Clear
1:40 AM 53.6 °F 48.2 °F 82% 29.58 in 10.0 mi WNW 9.2 mph - N/A   Clear
1:57 AM 53.6 °F 48.2 °F 82% 29.58 in 10.0 mi WNW 9.2 mph - N/A   Clear
2:15 AM 51.8 °F 48.2 °F 88% 29.60 in 10.0 mi West 9.2 mph - N/A   Clear
2:35 AM 51.8 °F 48.2 °F 88% 29.61 in 10.0 mi West 6.9 mph - N/A   Clear
2:36 AM 51.8 °F 48.2 °F 88% 29.61 in 10.0 mi WNW 6.9 mph - N/A   Clear
2:55 AM 51.8 °F 46.4 °F 82% 29.61 in 10.0 mi West 5.8 mph - N/A   Clear
2:56 AM 51.8 °F 46.4 °F 82% 29.61 in 10.0 mi West 5.8 mph - N/A   Clear
3:18 AM 51.8 °F 46.4 °F 82% - 10.0 mi West 4.6 mph - N/A   Clear
3:37 AM 50.0 °F 46.4 °F 87% 29.61 in 10.0 mi West 4.6 mph - N/A   Scattered Clouds
3:55 AM 50.0 °F 46.4 °F 87% 29.62 in 10.0 mi Calm Calm - N/A   Mostly Cloudy
3:56 AM 50.0 °F 46.4 °F 87% 29.62 in 10.0 mi Calm Calm - N/A   Mostly Cloudy
4:15 AM 50.0 °F 46.4 °F 87% 29.62 in 10.0 mi WSW 3.5 mph - N/A   Scattered Clouds
4:16 AM 50.0 °F 46.4 °F 87% 29.62 in 10.0 mi WSW 3.5 mph - N/A   Scattered Clouds
4:35 AM 50.0 °F 46.4 °F 87% 29.62 in 10.0 mi WSW 3.5 mph - N/A   Mostly Cloudy
4:39 AM 50.0 °F 46.4 °F 87% 29.62 in 10.0 mi West 3.5 mph - N/A   Mostly Cloudy
4:57 AM 51.8 °F 46.4 °F 82% 29.64 in 10.0 mi West 4.6 mph - N/A   Mostly Cloudy
5:15 AM 51.8 °F 46.4 °F 82% 29.64 in 10.0 mi West 3.5 mph - N/A   Scattered Clouds
5:35 AM 51.8 °F 44.6 °F 76% 29.65 in 10.0 mi West 3.5 mph - N/A   Mostly Cloudy
5:36 AM 51.8 °F 44.6 °F 76% 29.65 in 10.0 mi West 4.6 mph - N/A Rain Light Rain
5:55 AM 51.8 °F 44.6 °F 76% 29.66 in 10.0 mi WSW 3.5 mph - N/A   Light Drizzle
6:19 AM 48.2 °F 46.4 °F 93% 29.65 in 10.0 mi WSW 3.5 mph - N/A Rain Light Rain
6:36 AM 48.2 °F 46.4 °F 93% 29.65 in 10.0 mi Calm Calm - N/A   Clear
6:56 AM 48.2 °F 46.4 °F 93% 29.65 in 10.0 mi Calm Calm - N/A   Scattered Clouds
7:15 AM 48.2 °F 46.4 °F 93% 29.65 in 10.0 mi WSW 3.5 mph - N/A   Clear
7:16 AM 48.2 °F 46.4 °F 93% 29.65 in 10.0 mi Calm Calm - N/A   Clear
7:35 AM 48.2 °F 46.4 °F 93% 29.66 in 10.0 mi WSW 3.5 mph - N/A   Clear
7:39 AM 48.2 °F 46.4 °F 93% 29.66 in 10.0 mi WSW 4.6 mph - N/A   Clear
7:58 AM 48.2 °F 46.4 °F 93% 29.67 in 10.0 mi WSW 3.5 mph - N/A   Clear
8:16 AM 48.2 °F 46.4 °F 93% 29.68 in 10.0 mi SW 3.5 mph - N/A   Clear
8:35 AM 48.2 °F 44.6 °F 87% 29.68 in 10.0 mi WSW 3.5 mph - N/A   Clear
8:55 AM 48.2 °F 46.4 °F 93% 29.69 in 10.0 mi WSW 4.6 mph - N/A   Clear
8:56 AM 48.2 °F 46.4 °F 93% 29.69 in 10.0 mi WSW 4.6 mph - N/A   Clear
9:18 AM 50.0 °F 44.6 °F 82% 29.69 in 10.0 mi West 4.6 mph - N/A   Clear
9:36 AM 51.8 °F 44.6 °F 76% 29.69 in 10.0 mi WSW 3.5 mph - N/A   Clear
9:55 AM 51.8 °F 44.6 °F 76% 29.69 in 10.0 mi West 4.6 mph - N/A   Clear
9:56 AM 51.8 °F 44.6 °F 76% 29.69 in 10.0 mi West 3.5 mph - N/A   Clear
10:15 AM 53.6 °F 44.6 °F 72% 29.69 in 10.0 mi West 4.6 mph - N/A   Clear
10:16 AM 53.6 °F 44.6 °F 72% 29.69 in 10.0 mi West 4.6 mph - N/A   Clear
10:35 AM 55.4 °F 44.6 °F 67% 29.69 in 10.0 mi West 5.8 mph - N/A   Clear
10:39 AM 55.4 °F 44.6 °F 67% 29.69 in 10.0 mi West 5.8 mph - N/A   Clear
10:57 AM 57.2 °F 44.6 °F 63% 29.69 in 10.0 mi West 5.8 mph - N/A   Clear
11:15 AM 57.2 °F 44.6 °F 63% 29.70 in 10.0 mi West 5.8 mph - N/A   Clear
11:35 AM 60.8 °F 44.6 °F 55% 29.70 in 10.0 mi West 6.9 mph - N/A   Clear
11:36 AM 60.8 °F 44.6 °F 55% 29.70 in 10.0 mi West 6.9 mph - N/A   Clear
11:55 AM 60.8 °F 42.8 °F 52% 29.70 in 10.0 mi West 5.8 mph - N/A   Clear
11:56 AM 60.8 °F 42.8 °F 52% 29.70 in 10.0 mi West 4.6 mph - N/A   Clear
12:19 PM 62.6 °F 42.8 °F 48% 29.69 in 10.0 mi West 8.1 mph - N/A   Clear
12:37 PM 62.6 °F 42.8 °F 48% 29.69 in 10.0 mi West 4.6 mph - N/A   Clear
12:56 PM 64.4 °F 41.0 °F 42% 29.68 in 10.0 mi WNW 5.8 mph - N/A   Clear
1:15 PM 64.4 °F 39.2 °F 40% 29.68 in 10.0 mi West 6.9 mph - N/A   Clear
1:16 PM 64.4 °F 39.2 °F 40% 29.68 in 10.0 mi West 5.8 mph - N/A   Clear
1:35 PM 64.4 °F 39.2 °F 40% 29.67 in 10.0 mi West 6.9 mph - N/A   Clear
1:39 PM 64.4 °F 39.2 °F 40% 29.68 in 10.0 mi West 9.2 mph - N/A   Clear
1:58 PM 66.2 °F 39.2 °F 37% 29.67 in 10.0 mi West 6.9 mph - N/A   Clear
2:16 PM 66.2 °F 37.4 °F 35% 29.67 in 10.0 mi West 10.4 mph - N/A   Clear
2:36 PM 66.2 °F 37.4 °F 35% 29.67 in 10.0 mi WNW 9.2 mph - N/A   Clear
2:55 PM 66.2 °F 39.2 °F 37% 29.67 in 10.0 mi West 8.1 mph - N/A   Clear
3:15 PM 66.2 °F 37.4 °F 35% 29.66 in 10.0 mi West 8.1 mph - N/A   Clear
3:16 PM 66.2 °F 37.4 °F 35% 29.66 in 10.0 mi West 8.1 mph - N/A   Clear
3:35 PM 66.2 °F 35.6 °F 32% 29.66 in 10.0 mi WSW 10.4 mph 17.3 mph N/A   Clear
3:39 PM 66.2 °F 35.6 °F 32% 29.66 in 10.0 mi West 8.1 mph 17.3 mph N/A   Clear
3:57 PM 66.2 °F 35.6 °F 32% 29.66 in 10.0 mi West 11.5 mph - N/A   Clear
4:15 PM 64.4 °F 33.8 °F 32% 29.66 in 10.0 mi West 9.2 mph 18.4 mph N/A   Clear
4:35 PM 64.4 °F 33.8 °F 32% 29.66 in 10.0 mi West 9.2 mph 16.1 mph N/A   Clear
4:36 PM 64.4 °F 33.8 °F 32% 29.66 in 10.0 mi West 8.1 mph - N/A   Clear
4:55 PM 64.4 °F 35.6 °F 34% 29.67 in 10.0 mi West 8.1 mph - N/A   Clear
5:19 PM 64.4 °F 33.8 °F 32% 29.67 in 10.0 mi West 9.2 mph - N/A   Clear
5:36 PM 62.6 °F 33.8 °F 34% 29.68 in 10.0 mi West 6.9 mph - N/A   Clear
5:56 PM 60.8 °F 32.0 °F 34% 29.68 in 10.0 mi West 5.8 mph - N/A   Clear
6:15 PM 59.0 °F 33.8 °F 39% 29.69 in 10.0 mi West 5.8 mph - N/A   Clear
6:16 PM 59.0 °F 33.8 °F 39% 29.69 in 10.0 mi West 5.8 mph - N/A   Clear
6:39 PM 57.2 °F 35.6 °F 44% 29.70 in 10.0 mi Calm Calm - N/A   Clear
6:58 PM 55.4 °F 35.6 °F 47% 29.70 in 10.0 mi Calm Calm - N/A   Clear
7:16 PM 55.4 °F 33.8 °F 44% 29.71 in 10.0 mi Calm Calm - N/A   Clear
7:35 PM 53.6 °F 33.8 °F 47% 29.71 in 10.0 mi Calm Calm - N/A   Clear
7:55 PM 51.8 °F 33.8 °F 50% 29.72 in 10.0 mi Calm Calm - N/A   Clear
7:56 PM 51.8 °F 33.8 °F 50% 29.72 in 10.0 mi Calm Calm - N/A   Clear
8:18 PM 51.8 °F 35.6 °F 54% 29.73 in 10.0 mi Calm Calm - N/A   Clear
8:36 PM 50.0 °F 33.8 °F 54% 29.73 in 10.0 mi Calm Calm - N/A   Clear
8:56 PM 50.0 °F 33.8 °F 54% 29.73 in 10.0 mi Calm Calm - N/A   Clear
9:15 PM 48.2 °F 33.8 °F 58% 29.73 in 10.0 mi Calm Calm - N/A   Clear
9:16 PM 48.2 °F 35.6 °F 62% 29.73 in 10.0 mi Calm Calm - N/A   Clear
9:35 PM 48.2 °F 33.8 °F 58% 29.74 in 10.0 mi Calm Calm - N/A   Clear
9:58 PM 48.2 °F 33.8 °F 58% 29.74 in 10.0 mi Calm Calm - N/A   Clear
10:15 PM 48.2 °F 33.8 °F 58% 29.74 in 10.0 mi SW 3.5 mph - N/A   Clear
10:35 PM 48.2 °F 33.8 °F 58% 29.74 in 10.0 mi Calm Calm - N/A   Clear
10:36 PM 48.2 °F 33.8 °F 58% 29.74 in 10.0 mi Calm Calm - N/A   Clear
10:55 PM 48.2 °F 33.8 °F 58% 29.74 in 10.0 mi SW 3.5 mph - N/A   Clear
10:56 PM 48.2 °F 33.8 °F 58% 29.74 in 10.0 mi SW 3.5 mph - N/A   Clear
11:18 PM 48.2 °F 33.8 °F 58% 29.75 in 10.0 mi WSW 3.5 mph - N/A   Clear
11:36 PM 48.2 °F 33.8 °F 58% 29.75 in 10.0 mi Calm Calm - N/A   Clear
11:55 PM 46.4 °F 35.6 °F 66% 29.75 in 10.0 mi Calm Calm - N/A   Clear